| time (UTC) | temp C | wind direction | speed KPH | gust KPH | rain 1hr cm | rain 24hr cm | rain mn cm | humidity % | barometer mb |
| 20260506132028 | 11 | 47 | 16.1 | 27.4 | 0.00 | 0.00 | 0.00 | 84 | 1014.1 |
| 20260506131526 | 11 | 48 | 11.3 | 22.5 | 0.00 | 0.00 | 0.00 | 83 | 1014.1 |
| 20260506131022 | 11 | 47 | 14.5 | 22.5 | 0.00 | 0.00 | 0.00 | 83 | 1014.0 |
| 20260506130519 | 11 | 42 | 11.3 | 22.5 | 0.00 | 0.00 | 0.00 | 83 | 1013.7 |
| 20260506130017 | 11 | 47 | 14.5 | 24.1 | 0.00 | 0.00 | 0.00 | 83 | 1013.8 |
| 20260506125534 | 11 | 41 | 12.9 | 22.5 | 0.00 | 0.00 | 0.00 | 83 | 1013.7 |
| 20260506125050 | 11 | 44 | 14.5 | 27.4 | 0.00 | 0.00 | 0.00 | 83 | 1013.4 |
| 20260506124527 | 11 | 44 | 14.5 | 25.7 | 0.00 | 0.00 | 0.00 | 83 | 1013.6 |
| 20260506124024 | 11 | 45 | 16.1 | 25.7 | 0.00 | 0.00 | 0.00 | 83 | 1013.6 |
| 20260506123521 | 11 | 49 | 14.5 | 27.4 | 0.00 | 0.00 | 0.00 | 82 | 1013.6 |
| 20260506123038 | 11 | 47 | 14.5 | 24.1 | 0.00 | 0.00 | 0.00 | 82 | 1013.6 |
| 20260506122535 | 11 | 50 | 14.5 | 27.4 | 0.00 | 0.00 | 0.00 | 82 | 1013.4 |
| 20260506122032 | 11 | 43 | 16.1 | 29.0 | 0.00 | 0.00 | 0.00 | 82 | 1013.4 |
| 20260506121528 | 11 | 32 | 12.9 | 25.7 | 0.00 | 0.00 | 0.00 | 81 | 1013.3 |
| 20260506121025 | 11 | 49 | 16.1 | 29.0 | 0.00 | 0.00 | 0.00 | 81 | 1013.4 |
| 20260506120522 | 11 | 43 | 12.9 | 24.1 | 0.00 | 0.00 | 0.00 | 80 | 1013.4 |
| 20260506120019 | 12 | 36 | 12.9 | 29.0 | 0.00 | 0.00 | 0.00 | 79 | 1013.2 |
| 20260506115516 | 12 | 38 | 16.1 | 29.0 | 0.00 | 0.00 | 0.00 | 77 | 1013.2 |
| 20260506115033 | 12 | 48 | 14.5 | 27.4 | 0.00 | 0.00 | 0.00 | 77 | 1013.1 |
| 20260506114550 | 12 | 53 | 14.5 | 27.4 | 0.00 | 0.00 | 0.00 | 77 | 1013.1 |
| 20260506114026 | 12 | 40 | 14.5 | 24.1 | 0.00 | 0.00 | 0.00 | 76 | 1013.0 |
| 20260506113604 | 12 | 34 | 11.3 | 22.5 | 0.00 | 0.00 | 0.00 | 75 | 1012.8 |
| 20260506113040 | 12 | 45 | 12.9 | 24.1 | 0.00 | 0.00 | 0.00 | 75 | 1012.8 |
| 20260506112537 | 12 | 49 | 14.5 | 25.7 | 0.00 | 0.00 | 0.00 | 75 | 1012.7 |
| 20260506112034 | 12 | 45 | 12.9 | 25.7 | 0.00 | 0.00 | 0.00 | 74 | 1012.5 |
| 20260506111531 | 12 | 35 | 12.9 | 25.7 | 0.00 | 0.00 | 0.00 | 74 | 1012.3 |
| 20260506111048 | 12 | 24 | 8.0 | 25.7 | 0.00 | 0.00 | 0.00 | 74 | 1012.2 |
| 20260506110524 | 12 | 49 | 12.9 | 27.4 | 0.00 | 0.00 | 0.00 | 74 | 1012.2 |
| 20260506110022 | 12 | 28 | 8.0 | 14.5 | 0.00 | 0.00 | 0.00 | 74 | 1012.0 |
| 20260506105519 | 12 | 38 | 11.3 | 22.5 | 0.00 | 0.00 | 0.00 | 74 | 1012.1 |
| 20260506105035 | 12 | 34 | 12.9 | 24.1 | 0.00 | 0.00 | 0.00 | 74 | 1012.0 |
| 20260506104532 | 13 | 42 | 12.9 | 25.7 | 0.00 | 0.00 | 0.00 | 74 | 1011.9 |
| 20260506104049 | 13 | 41 | 14.5 | 25.7 | 0.00 | 0.00 | 0.00 | 74 | 1011.8 |
| 20260506103525 | 13 | 35 | 12.9 | 22.5 | 0.00 | 0.00 | 0.00 | 74 | 1012.0 |
| 20260506103022 | 13 | 33 | 11.3 | 24.1 | 0.00 | 0.00 | 0.00 | 74 | 1011.8 |
| 20260506102519 | 13 | 34 | 11.3 | 20.9 | 0.00 | 0.00 | 0.00 | 74 | 1011.7 |
| 20260506102016 | 13 | 33 | 9.7 | 16.1 | 0.00 | 0.00 | 0.00 | 74 | 1011.5 |
| 20260506101533 | 13 | 41 | 11.3 | 22.5 | 0.00 | 0.00 | 0.00 | 74 | 1011.4 |
| 20260506101029 | 13 | 45 | 12.9 | 22.5 | 0.00 | 0.00 | 0.00 | 74 | 1011.4 |
| 20260506100527 | 13 | 49 | 12.9 | 22.5 | 0.00 | 0.00 | 0.00 | 73 | 1011.3 |
| 20260506100023 | 13 | 26 | 11.3 | 24.1 | 0.00 | 0.00 | 0.00 | 74 | 1011.1 |
| 20260506095520 | 13 | 42 | 8.0 | 14.5 | 0.00 | 0.00 | 0.00 | 75 | 1011.0 |
| 20260506095016 | 13 | 26 | 11.3 | 19.3 | 0.00 | 0.00 | 0.00 | 75 | 1011.0 |
| 20260506094534 | 13 | 48 | 11.3 | 19.3 | 0.00 | 0.00 | 0.00 | 75 | 1011.1 |
| 20260506094030 | 13 | 43 | 12.9 | 20.9 | 0.00 | 0.00 | 0.00 | 75 | 1010.9 |
| 20260506093526 | 13 | 47 | 11.3 | 20.9 | 0.00 | 0.00 | 0.00 | 74 | 1011.0 |
| 20260506093023 | 13 | 47 | 9.7 | 16.1 | 0.00 | 0.00 | 0.00 | 74 | 1011.0 |
| 20260506092541 | 13 | 42 | 11.3 | 22.5 | 0.00 | 0.00 | 0.00 | 74 | 1010.8 |
| 20260506092017 | 13 | 41 | 11.3 | 22.5 | 0.00 | 0.00 | 0.00 | 74 | 1010.8 |
| 20260506091534 | 13 | 42 | 12.9 | 20.9 | 0.00 | 0.00 | 0.00 | 74 | 1010.8 |
| 20260506091031 | 13 | 46 | 12.9 | 20.9 | 0.00 | 0.00 | 0.00 | 74 | 1010.8 |
| 20260506090527 | 13 | 44 | 9.7 | 17.7 | 0.00 | 0.00 | 0.00 | 75 | 1010.7 |
| 20260506090045 | 13 | 42 | 11.3 | 19.3 | 0.00 | 0.00 | 0.00 | 75 | 1010.8 |
| 20260506085521 | 13 | 48 | 11.3 | 17.7 | 0.00 | 0.00 | 0.00 | 75 | 1010.7 |
| 20260506085018 | 14 | 40 | 11.3 | 25.7 | 0.00 | 0.00 | 0.00 | 76 | 1010.7 |
| 20260506084555 | 14 | 39 | 9.7 | 19.3 | 0.00 | 0.00 | 0.00 | 76 | 1010.6 |
| 20260506084052 | 14 | 42 | 8.0 | 17.7 | 0.00 | 0.00 | 0.00 | 76 | 1010.4 |
| 20260506083529 | 14 | 44 | 11.3 | 20.9 | 0.00 | 0.00 | 0.00 | 76 | 1010.3 |
| 20260506083045 | 14 | 39 | 9.7 | 17.7 | 0.00 | 0.00 | 0.00 | 76 | 1010.3 |
| 20260506082522 | 14 | 42 | 11.3 | 17.7 | 0.00 | 0.00 | 0.00 | 76 | 1010.3 |
| 20260506082039 | 14 | 39 | 8.0 | 16.1 | 0.00 | 0.00 | 0.00 | 76 | 1010.4 |
| 20260506081536 | 14 | 44 | 8.0 | 17.7 | 0.00 | 0.00 | 0.00 | 76 | 1010.5 |
| 20260506081052 | 14 | 46 | 11.3 | 19.3 | 0.00 | 0.00 | 0.00 | 76 | 1010.4 |
| 20260506080529 | 14 | 51 | 11.3 | 20.9 | 0.00 | 0.00 | 0.00 | 75 | 1010.4 |
| 20260506073027 | 15 | 56 | 9.7 | 17.7 | 0.00 | 0.00 | 0.00 | 76 | 1010.0 |
| 20260506072524 | 15 | 46 | 9.7 | 16.1 | 0.00 | 0.00 | 0.00 | 76 | 1009.8 |
| 20260506072021 | 15 | 54 | 6.4 | 11.3 | 0.00 | 0.00 | 0.00 | 76 | 1009.8 |
| 20260506071518 | 14 | 50 | 11.3 | 17.7 | 0.00 | 0.00 | 0.00 | 76 | 1010.0 |
| 20260506071035 | 14 | 44 | 11.3 | 17.7 | 0.00 | 0.00 | 0.00 | 76 | 1009.9 |
| 20260506070531 | 14 | 51 | 12.9 | 22.5 | 0.00 | 0.00 | 0.00 | 76 | 1010.1 |
| 20260506062022 | 15 | 43 | 11.3 | 19.3 | 0.00 | 0.00 | 0.00 | 76 | 1010.1 |
| 20260506061519 | 15 | 51 | 12.9 | 20.9 | 0.00 | 0.00 | 0.00 | 77 | 1009.9 |
| 20260506061037 | 15 | 51 | 11.3 | 19.3 | 0.00 | 0.00 | 0.00 | 77 | 1010.0 |
| 20260506060534 | 15 | 45 | 11.3 | 19.3 | 0.00 | 0.00 | 0.00 | 78 | 1010.2 |
| 20260506051021 | 16 | 29 | 9.7 | 22.5 | 0.00 | 0.00 | 0.00 | 78 | 1010.4 |
| 20260506050517 | 16 | 42 | 11.3 | 20.9 | 0.00 | 0.00 | 0.00 | 78 | 1010.2 |
| 20260506045027 | 16 | 45 | 12.9 | 20.9 | 0.00 | 0.00 | 0.00 | 78 | 1010.0 |
| 20260506044525 | 16 | 42 | 14.5 | 25.7 | 0.00 | 0.00 | 0.00 | 78 | 1009.9 |
| 20260506044021 | 16 | 46 | 14.5 | 27.4 | 0.00 | 0.00 | 0.00 | 78 | 1009.9 |
| 20260506043518 | 16 | 47 | 12.9 | 24.1 | 0.00 | 0.00 | 0.00 | 77 | 1010.1 |
| 20260506043035 | 16 | 34 | 12.9 | 25.7 | 0.00 | 0.00 | 0.00 | 77 | 1009.9 |
| 20260506042532 | 16 | 23 | 9.7 | 17.7 | 0.00 | 0.00 | 0.00 | 77 | 1010.0 |
| 20260506042029 | 16 | 36 | 11.3 | 24.1 | 0.00 | 0.00 | 0.00 | 77 | 1009.9 |
| 20260506041526 | 16 | 42 | 11.3 | 25.7 | 0.00 | 0.00 | 0.00 | 77 | 1010.0 |
| 20260506041042 | 16 | 33 | 11.3 | 25.7 | 0.00 | 0.00 | 0.00 | 77 | 1010.0 |
| 20260506040539 | 17 | 25 | 11.3 | 25.7 | 0.00 | 0.00 | 0.00 | 76 | 1009.9 |
| 20260506040016 | 17 | 46 | 12.9 | 27.4 | 0.00 | 0.00 | 0.00 | 76 | 1009.8 |
| 20260506035533 | 17 | 36 | 12.9 | 25.7 | 0.00 | 0.00 | 0.00 | 76 | 1009.8 |
| 20260506035029 | 17 | 38 | 11.3 | 25.7 | 0.00 | 0.00 | 0.00 | 76 | 1009.7 |
| 20260506034526 | 17 | 40 | 9.7 | 22.5 | 0.00 | 0.00 | 0.00 | 76 | 1009.5 |
| 20260506034024 | 17 | 19 | 8.0 | 16.1 | 0.00 | 0.00 | 0.00 | 75 | 1009.4 |
| 20260506033521 | 17 | 22 | 9.7 | 20.9 | 0.00 | 0.00 | 0.00 | 75 | 1009.2 |
| 20260506033019 | 17 | 40 | 11.3 | 19.3 | 0.00 | 0.00 | 0.00 | 75 | 1009.0 |
| 20260506032516 | 17 | 43 | 14.5 | 24.1 | 0.00 | 0.00 | 0.00 | 75 | 1008.8 |
| 20260506032033 | 18 | 40 | 14.5 | 25.7 | 0.00 | 0.00 | 0.00 | 75 | 1009.0 |
| 20260506031550 | 18 | 41 | 16.1 | 25.7 | 0.00 | 0.00 | 0.00 | 75 | 1008.9 |
| 20260506031046 | 18 | 39 | 12.9 | 24.1 | 0.00 | 0.00 | 0.00 | 75 | 1008.8 |
| 20260506030523 | 18 | 36 | 12.9 | 22.5 | 0.00 | 0.00 | 0.00 | 75 | 1008.8 |
| 20260506030020 | 18 | 45 | 14.5 | 27.4 | 0.00 | 0.00 | 0.00 | 74 | 1008.7 |
| 20260506025517 | 19 | 40 | 11.3 | 20.9 | 0.00 | 0.00 | 0.00 | 73 | 1008.6 |
| 20260506025034 | 19 | 25 | 9.7 | 20.9 | 0.00 | 0.00 | 0.00 | 73 | 1008.4 |
| 20260506024550 | 19 | 37 | 9.7 | 20.9 | 0.00 | 0.00 | 0.00 | 72 | 1008.4 |
| 20260506024028 | 19 | 41 | 11.3 | 22.5 | 0.00 | 0.00 | 0.00 | 72 | 1008.3 |
| 20260506023525 | 19 | 30 | 8.0 | 17.7 | 0.00 | 0.00 | 0.00 | 71 | 1008.2 |
| 20260506023021 | 20 | 22 | 8.0 | 16.1 | 0.00 | 0.00 | 0.00 | 71 | 1008.1 |
| 20260506022538 | 20 | 31 | 6.4 | 14.5 | 0.00 | 0.00 | 0.00 | 71 | 1008.1 |
| 20260506022055 | 20 | 28 | 11.3 | 17.7 | 0.00 | 0.00 | 0.00 | 71 | 1008.0 |
| 20260506021531 | 20 | 13 | 8.0 | 14.5 | 0.00 | 0.00 | 0.00 | 70 | 1007.8 |
| 20260506021028 | 20 | 26 | 8.0 | 14.5 | 0.00 | 0.00 | 0.00 | 70 | 1007.6 |
| 20260506020525 | 20 | 42 | 8.0 | 22.5 | 0.00 | 0.00 | 0.00 | 70 | 1007.6 |
| 20260506020022 | 20 | 33 | 9.7 | 19.3 | 0.00 | 0.00 | 0.00 | 70 | 1007.8 |
| 20260506015519 | 20 | 40 | 14.5 | 24.1 | 0.00 | 0.00 | 0.00 | 70 | 1007.5 |
| 20260506015016 | 20 | 41 | 11.3 | 22.5 | 0.00 | 0.00 | 0.00 | 71 | 1007.3 |
| 20260506014532 | 20 | 44 | 12.9 | 20.9 | 0.00 | 0.00 | 0.00 | 70 | 1007.0 |
| 20260506014029 | 20 | 42 | 11.3 | 24.1 | 0.00 | 0.00 | 0.00 | 70 | 1006.9 |
| 20260506013526 | 20 | 34 | 8.0 | 17.7 | 0.00 | 0.00 | 0.00 | 69 | 1007.1 |
| 20260506013023 | 20 | 36 | 9.7 | 22.5 | 0.00 | 0.00 | 0.00 | 69 | 1006.9 |
| 20260506012520 | 20 | 47 | 9.7 | 19.3 | 0.00 | 0.00 | 0.00 | 69 | 1006.8 |
| 20260506012017 | 21 | 35 | 11.3 | 24.1 | 0.00 | 0.00 | 0.00 | 69 | 1006.7 |
| 20260506011534 | 21 | 44 | 11.3 | 17.7 | 0.00 | 0.00 | 0.00 | 69 | 1006.6 |
| 20260506011031 | 21 | 42 | 9.7 | 19.3 | 0.00 | 0.00 | 0.00 | 69 | 1006.5 |
| 20260506010528 | 21 | 44 | 12.9 | 19.3 | 0.00 | 0.00 | 0.00 | 68 | 1006.3 |
| 20260506010026 | 21 | 47 | 12.9 | 22.5 | 0.00 | 0.00 | 0.00 | 68 | 1006.3 |
| 20260506005523 | 22 | 43 | 11.3 | 19.3 | 0.00 | 0.00 | 0.00 | 68 | 1006.2 |
| 20260506005020 | 22 | 40 | 8.0 | 20.9 | 0.00 | 0.00 | 0.00 | 68 | 1006.2 |
| 20260506004523 | 22 | 19 | 6.4 | 16.1 | 0.00 | 0.00 | 0.00 | 67 | 1006.0 |
| 20260506004034 | 22 | 31 | 9.7 | 17.7 | 0.00 | 0.00 | 0.00 | 67 | 1006.0 |
| 20260506003530 | 22 | 44 | 11.3 | 20.9 | 0.00 | 0.00 | 0.00 | 67 | 1005.6 |
| 20260506003027 | 23 | 38 | 8.0 | 16.1 | 0.00 | 0.00 | 0.00 | 66 | 1005.5 |
| 20260506002524 | 23 | 31 | 9.7 | 20.9 | 0.00 | 0.00 | 0.00 | 66 | 1005.5 |
| 20260506002041 | 23 | 33 | 11.3 | 22.5 | 0.00 | 0.00 | 0.00 | 65 | 1005.7 |
| 20260506001517 | 23 | 26 | 6.4 | 12.9 | 0.00 | 0.00 | 0.00 | 65 | 1005.6 |
| 20260506001034 | 23 | 21 | 9.7 | 19.3 | 0.00 | 0.00 | 0.00 | 64 | 1005.6 |
| 20260506000531 | 23 | 35 | 11.3 | 20.9 | 0.00 | 0.00 | 0.00 | 63 | 1005.4 |
| 20260506000028 | 24 | 38 | 8.0 | 19.3 | 0.00 | 0.00 | 0.00 | 64 | 1005.5 |
| 20260505235525 | 24 | 32 | 8.0 | 16.1 | 0.00 | 0.00 | 0.00 | 63 | 1005.4 |
| 20260505235022 | 25 | 16 | 8.0 | 19.3 | 0.00 | 0.00 | 0.00 | 62 | 1005.4 |
| 20260505234517 | 25 | 27 | 8.0 | 19.3 | 0.00 | 0.00 | 0.00 | 61 | 1005.4 |
| 20260505234035 | 25 | 14 | 9.7 | 20.9 | 0.00 | 0.00 | 0.00 | 60 | 1005.3 |
| 20260505233552 | 25 | 29 | 9.7 | 16.1 | 0.00 | 0.00 | 0.00 | 60 | 1005.3 |
| 20260505233028 | 26 | 29 | 6.4 | 17.7 | 0.00 | 0.00 | 0.00 | 60 | 1005.1 |
| 20260505232606 | 26 | 360 | 6.4 | 17.7 | 0.00 | 0.00 | 0.00 | 58 | 1005.3 |
| 20260505232043 | 26 | 10 | 8.0 | 17.7 | 0.00 | 0.00 | 0.00 | 58 | 1005.3 |
| 20260505231519 | 26 | 4 | 9.7 | 16.1 | 0.00 | 0.00 | 0.00 | 57 | 1005.3 |
| 20260505231016 | 27 | 18 | 6.4 | 19.3 | 0.00 | 0.00 | 0.00 | 57 | 1005.0 |
| 20260505230533 | 27 | 6 | 8.0 | 14.5 | 0.00 | 0.00 | 0.00 | 56 | 1004.9 |
| 20260505230030 | 27 | 356 | 8.0 | 14.5 | 0.00 | 0.00 | 0.00 | 55 | 1005.1 |
| 20260505225547 | 27 | 2 | 8.0 | 17.7 | 0.00 | 0.00 | 0.00 | 55 | 1005.0 |
| 20260505225024 | 28 | 354 | 8.0 | 17.7 | 0.00 | 0.00 | 0.00 | 55 | 1004.8 |
| 20260505224540 | 28 | 340 | 6.4 | 12.9 | 0.00 | 0.00 | 0.00 | 55 | 1004.6 |
| 20260505224017 | 28 | 333 | 6.4 | 11.3 | 0.00 | 0.00 | 0.00 | 54 | 1004.6 |
| 20260505223554 | 29 | 336 | 8.0 | 19.3 | 0.00 | 0.00 | 0.00 | 54 | 1004.5 |
| 20260505223031 | 29 | 343 | 6.4 | 14.5 | 0.00 | 0.00 | 0.00 | 54 | 1004.6 |
| 20260505222528 | 29 | 7 | 8.0 | 14.5 | 0.00 | 0.00 | 0.00 | 53 | 1004.6 |
| 20260505222024 | 29 | 357 | 6.4 | 11.3 | 0.00 | 0.00 | 0.00 | 52 | 1004.3 |
| 20260505221521 | 30 | 348 | 6.4 | 12.9 | 0.00 | 0.00 | 0.00 | 49 | 1004.3 |
| 20260505221018 | 30 | 349 | 6.4 | 11.3 | 0.00 | 0.00 | 0.00 | 47 | 1004.4 |
| 20260505220515 | 30 | 355 | 6.4 | 12.9 | 0.00 | 0.00 | 0.00 | 45 | 1004.2 |
| 20260505220052 | 30 | 357 | 6.4 | 11.3 | 0.00 | 0.00 | 0.00 | 45 | 1004.1 |
| 20260505215529 | 30 | 350 | 6.4 | 14.5 | 0.00 | 0.00 | 0.00 | 45 | 1004.1 |
| 20260505215026 | 31 | 8 | 4.8 | 9.7 | 0.00 | 0.00 | 0.00 | 45 | 1004.2 |
| 20260505214543 | 31 | 346 | 6.4 | 12.9 | 0.00 | 0.00 | 0.00 | 44 | 1004.2 |
| 20260505214019 | 31 | 343 | 4.8 | 9.7 | 0.00 | 0.00 | 0.00 | 45 | 1004.4 |
| 20260505213516 | 31 | 342 | 6.4 | 12.9 | 0.00 | 0.00 | 0.00 | 45 | 1004.3 |
| 20260505213032 | 31 | 354 | 4.8 | 11.3 | 0.00 | 0.00 | 0.00 | 45 | 1004.1 |
| 20260505212530 | 31 | 8 | 6.4 | 14.5 | 0.00 | 0.00 | 0.00 | 45 | 1004.1 |
| 20260505212047 | 32 | 333 | 6.4 | 14.5 | 0.00 | 0.00 | 0.00 | 44 | 1004.1 |
| 20260505211524 | 33 | 250 | 9.7 | 22.5 | 0.00 | 0.00 | 0.00 | 45 | 1004.1 |
| 20260505211020 | 33 | 228 | 11.3 | 19.3 | 0.00 | 0.00 | 0.00 | 44 | 1004.2 |
| 20260505210517 | 33 | 243 | 8.0 | 20.9 | 0.00 | 0.00 | 0.00 | 44 | 1004.4 |
| 20260505210034 | 33 | 236 | 9.7 | 17.7 | 0.00 | 0.00 | 0.00 | 44 | 1004.2 |
| 20260505205530 | 33 | 250 | 6.4 | 14.5 | 0.00 | 0.00 | 0.00 | 44 | 1004.3 |
| 20260505205027 | 33 | 264 | 6.4 | 12.9 | 0.00 | 0.00 | 0.00 | 45 | 1004.4 |
| 20260505204524 | 33 | 221 | 9.7 | 19.3 | 0.00 | 0.00 | 0.00 | 45 | 1004.5 |
| 20260505204022 | 33 | 234 | 8.0 | 14.5 | 0.00 | 0.00 | 0.00 | 45 | 1004.6 |
| 20260505203519 | 33 | 241 | 6.4 | 16.1 | 0.00 | 0.00 | 0.00 | 45 | 1004.6 |
| 20260505203016 | 33 | 255 | 8.0 | 14.5 | 0.00 | 0.00 | 0.00 | 46 | 1004.6 |
| 20260505202552 | 33 | 225 | 11.3 | 20.9 | 0.00 | 0.00 | 0.00 | 45 | 1004.6 |
| 20260505202029 | 33 | 232 | 9.7 | 19.3 | 0.00 | 0.00 | 0.00 | 47 | 1004.7 |
| 20260505201526 | 32 | 242 | 11.3 | 27.4 | 0.00 | 0.00 | 0.00 | 47 | 1004.9 |
| 20260505201103 | 33 | 254 | 9.7 | 22.5 | 0.00 | 0.00 | 0.00 | 47 | 1005.0 |
| 20260505200540 | 32 | 254 | 9.7 | 17.7 | 0.00 | 0.00 | 0.00 | 47 | 1005.0 |
| 20260505200016 | 32 | 259 | 8.0 | 17.7 | 0.00 | 0.00 | 0.00 | 47 | 1004.9 |
| 20260505195533 | 32 | 247 | 11.3 | 20.9 | 0.00 | 0.00 | 0.00 | 47 | 1005.0 |
| 20260505195030 | 32 | 262 | 8.0 | 17.7 | 0.00 | 0.00 | 0.00 | 48 | 1005.0 |
| 20260505194527 | 32 | 256 | 9.7 | 24.1 | 0.00 | 0.00 | 0.00 | 50 | 1004.9 |
| 20260505194024 | 32 | 235 | 9.7 | 25.7 | 0.00 | 0.00 | 0.00 | 52 | 1004.9 |
| 20260505193541 | 32 | 239 | 9.7 | 20.9 | 0.00 | 0.00 | 0.00 | 52 | 1004.9 |
| 20260505193017 | 31 | 219 | 11.3 | 22.5 | 0.00 | 0.00 | 0.00 | 53 | 1004.9 |
| 20260505192534 | 31 | 231 | 12.9 | 24.1 | 0.00 | 0.00 | 0.00 | 54 | 1005.0 |
| 20260505192031 | 31 | 225 | 11.3 | 22.5 | 0.00 | 0.00 | 0.00 | 53 | 1004.9 |
| 20260505191548 | 31 | 226 | 12.9 | 24.1 | 0.00 | 0.00 | 0.00 | 54 | 1004.9 |
| 20260505191045 | 30 | 221 | 12.9 | 25.7 | 0.00 | 0.00 | 0.00 | 54 | 1004.9 |
| 20260505190522 | 31 | 226 | 14.5 | 29.0 | 0.00 | 0.00 | 0.00 | 54 | 1004.9 |
| 20260505190038 | 30 | 218 | 11.3 | 29.0 | 0.00 | 0.00 | 0.00 | 55 | 1004.8 |
| 20260505185535 | 30 | 224 | 14.5 | 29.0 | 0.00 | 0.00 | 0.00 | 56 | 1004.9 |
| 20260505185052 | 30 | 228 | 12.9 | 30.6 | 0.00 | 0.00 | 0.00 | 58 | 1004.9 |
| 20260505184529 | 30 | 220 | 12.9 | 24.1 | 0.00 | 0.00 | 0.00 | 58 | 1005.0 |
| 20260505184025 | 30 | 222 | 14.5 | 30.6 | 0.00 | 0.00 | 0.00 | 58 | 1004.9 |
| 20260505183522 | 30 | 213 | 14.5 | 32.2 | 0.00 | 0.00 | 0.00 | 57 | 1005.2 |
| 20260505183019 | 30 | 208 | 8.0 | 17.7 | 0.00 | 0.00 | 0.00 | 58 | 1005.1 |
| 20260505182516 | 29 | 221 | 12.9 | 24.1 | 0.00 | 0.00 | 0.00 | 59 | 1005.1 |
| 20260505182032 | 29 | 230 | 12.9 | 24.1 | 0.00 | 0.00 | 0.00 | 59 | 1005.0 |
| 20260505181529 | 29 | 212 | 14.5 | 30.6 | 0.00 | 0.00 | 0.00 | 59 | 1005.0 |
| 20260505181026 | 30 | 218 | 11.3 | 20.9 | 0.00 | 0.00 | 0.00 | 60 | 1005.1 |
| 20260505180522 | 29 | 217 | 9.7 | 20.9 | 0.00 | 0.00 | 0.00 | 60 | 1005.2 |
| 20260505180019 | 29 | 219 | 11.3 | 20.9 | 0.00 | 0.00 | 0.00 | 61 | 1005.2 |
| 20260505175516 | 29 | 219 | 16.1 | 30.6 | 0.00 | 0.00 | 0.00 | 61 | 1005.1 |
| 20260505175033 | 29 | 223 | 9.7 | 20.9 | 0.00 | 0.00 | 0.00 | 61 | 1005.1 |
| 20260505174530 | 29 | 214 | 8.0 | 20.9 | 0.00 | 0.00 | 0.00 | 61 | 1005.0 |
| 20260505174047 | 28 | 218 | 9.7 | 22.5 | 0.00 | 0.00 | 0.00 | 62 | 1005.1 |
| 20260505173545 | 29 | 221 | 14.5 | 27.4 | 0.00 | 0.00 | 0.00 | 62 | 1005.1 |
| 20260505173041 | 28 | 218 | 14.5 | 30.6 | 0.00 | 0.00 | 0.00 | 62 | 1005.1 |
| 20260505172516 | 28 | 221 | 9.7 | 20.9 | 0.00 | 0.00 | 0.00 | 62 | 1005.0 |
| 20260505172032 | 28 | 224 | 9.7 | 29.0 | 0.00 | 0.00 | 0.00 | 62 | 1005.1 |
| 20260505171528 | 28 | 213 | 11.3 | 25.7 | 0.00 | 0.00 | 0.00 | 63 | 1005.1 |
| 20260505171046 | 28 | 216 | 9.7 | 30.6 | 0.00 | 0.00 | 0.00 | 62 | 1005.2 |
| 20260505170522 | 28 | 217 | 12.9 | 29.0 | 0.00 | 0.00 | 0.00 | 63 | 1005.0 |
| 20260505170019 | 28 | 216 | 11.3 | 29.0 | 0.00 | 0.00 | 0.00 | 62 | 1005.0 |
| 20260505165516 | 28 | 215 | 9.7 | 20.9 | 0.00 | 0.00 | 0.00 | 63 | 1005.0 |
| 20260505165033 | 28 | 218 | 14.5 | 33.8 | 0.00 | 0.00 | 0.00 | 64 | 1005.1 |
| 20260505164530 | 28 | 215 | 12.9 | 30.6 | 0.00 | 0.00 | 0.00 | 64 | 1005.1 |
| 20260505164026 | 27 | 215 | 12.9 | 24.1 | 0.00 | 0.00 | 0.00 | 66 | 1005.1 |
| 20260505163523 | 27 | 216 | 9.7 | 20.9 | 0.00 | 0.00 | 0.00 | 66 | 1005.0 |
| 20260505163040 | 27 | 215 | 8.0 | 20.9 | 0.00 | 0.00 | 0.00 | 67 | 1005.0 |
| 20260505162517 | 26 | 216 | 11.3 | 27.4 | 0.00 | 0.00 | 0.00 | 68 | 1005.0 |
| 20260505162033 | 27 | 222 | 12.9 | 32.2 | 0.00 | 0.00 | 0.00 | 67 | 1005.0 |
| 20260505161531 | 27 | 217 | 14.5 | 29.0 | 0.00 | 0.00 | 0.00 | 67 | 1005.0 |
| 20260505161028 | 27 | 217 | 9.7 | 25.7 | 0.00 | 0.00 | 0.00 | 67 | 1004.8 |
| 20260505160525 | 26 | 223 | 9.7 | 20.9 | 0.00 | 0.00 | 0.00 | 68 | 1004.9 |
| 20260505153023 | 25 | 215 | 6.4 | 20.9 | 0.00 | 0.00 | 0.00 | 73 | 1004.7 |
| 20260505152519 | 25 | 219 | 11.3 | 24.1 | 0.00 | 0.00 | 0.00 | 73 | 1004.5 |
| 20260505152016 | 25 | 213 | 9.7 | 24.1 | 0.00 | 0.00 | 0.00 | 74 | 1004.6 |
| 20260505151533 | 25 | 217 | 11.3 | 25.7 | 0.00 | 0.00 | 0.00 | 73 | 1004.6 |
| 20260505151030 | 25 | 222 | 9.7 | 19.3 | 0.00 | 0.00 | 0.00 | 74 | 1004.8 |
| 20260505150526 | 25 | 204 | 11.3 | 19.3 | 0.00 | 0.00 | 0.00 | 74 | 1004.4 |
| 20260505140527 | 23 | 215 | 8.0 | 19.3 | 0.00 | 0.00 | 0.00 | 79 | 1004.4 |